Home   Weather   Longueuil   Past weeks

Flag for Canada Past Weather in Longueuil, Quebec, Canada — Yesterday and Last 2 Weeks

Now
58 °F

Cool.


Feels Like: 58 °F
Forecast: 56 / 71 °F
Wind: 3 mph from Southwest

Location: Mc Tavish

Current Time: Jun 28, 2017 at 3:08:33 am

Latest Report: Jun 28, 2017 at 2:00 am


Visibility: N/A

Pressure: 29.91 "Hg

Humidity: 90%

Dew Point: 55 °F

Location of LongueuilLocation

Past Weather in Longueuil — Graph

°F

Longueuil Temperature Yesterday

Maximum temperature yesterday: 68 °F (at 12:00 pm)
Minimum temperature yesterday: 57 °F (at 3:00 pm)
Average temperature yesterday: 61 °F

High & Low Weather Summary for the Past Weeks

 TemperatureHumidityPressure
High87 °F (Jun 18, 2:00 pm)100% (Jun 23, 9:00 pm)30.14 "Hg (Jun 23, 9:00 pm)
Low53 °F (Jun 15, 6:00 am)26% (Jun 13, 6:00 pm)29.43 "Hg (Jun 24, 2:00 am)
Average68 °F68%29.82 "Hg
* Reported Jun 13 1:00 am — Jun 28 1:00 am, Longueuil. Weather by CustomWeather, © 2017

Note: Actual official high and low records may vary slightly from our data, if they occured in-between our weather recording intervals... More about our weather records

Advertising

Longueuil Weather History for the Previous 24 Hours

Scroll right to see more
 ConditionsComfort  
Time TempWeatherWind HumidityBarometerVisibility
1:00 am
Wed, Jun 28
59 °FCool.3 mph87%29.91 "HgN/A
12:00 am58 °FCool.5 mph91%29.91 "HgN/A
11:00 pm
Tue, Jun 27
59 °FCool.1 mph80%29.90 "HgN/A
10:00 pm58 °FCool.3 mph86%29.89 "HgN/A
9:00 pm59 °FCool.1 mph82%29.87 "HgN/A
8:00 pm60 °FCool.1 mph77%29.87 "HgN/A
7:00 pm63 °FMild.2 mph68%29.86 "HgN/A
6:00 pm63 °FMild.2 mph67%29.87 "HgN/A
5:00 pm62 °FCool.3 mph80%29.89 "HgN/A
4:00 pm59 °FCool.1 mph84%29.90 "HgN/A
3:00 pm57 °FCool.7 mph87%29.92 "HgN/A
2:00 pm67 °FMild.3 mph58%29.87 "HgN/A
1:00 pm67 °FMild.3 mph54%29.87 "HgN/A
12:00 pm68 °FMild.5 mph60%29.90 "HgN/A
11:00 am66 °FMild.5 mph59%29.93 "HgN/A
10:00 am64 °FMild.5 mph69%29.94 "HgN/A
9:00 am62 °FCool.3 mph71%29.95 "HgN/A
8:00 am60 °FCool.5 mph80%29.94 "HgN/A
7:00 am60 °FCool.3 mph79%29.94 "HgN/A
6:00 am58 °FCool.3 mph81%29.94 "HgN/A
5:00 am58 °FCool.2 mph81%29.93 "HgN/A
4:00 am60 °FCool.5 mph75%29.92 "HgN/A
3:00 am60 °FCool.2 mph75%29.91 "HgN/A
Weather by CustomWeather, © 2017

See weather overviewHow to use our weather pages